Location: Dackenheim
(49.5215°N, 8.1854°E)
Time: 16:25:39
(UTC+00:00)

ITAMSAT 1 - Visible Passes

Search period start: 14 March 2026 00:00
Search period end: 24 March 2026 00:00
Orbit: 781 x 794 km, 98.7° (Epoch: 14 March)

Date Brightness Start Highest point End Pass type
(mag) Time Alt. Az. Time Alt. Az. Time Alt. Az.
14 Mar 8.3 19:54:25 39° NE 19:54:25 39° NE 19:58:53 10° N visible
14 Mar 9.4 21:35:05 29° WNW 21:35:05 29° WNW 21:38:16 10° NNW visible
15 Mar 8.8 19:23:35 24° ENE 19:24:01 24° ENE 19:28:05 10° N visible
15 Mar 8.5 21:04:14 47° NW 21:04:14 47° NW 21:08:11 10° NNW visible
16 Mar 9.4 18:52:45 14° ENE 18:54:03 15° NE 18:56:54 10° NNE visible
16 Mar 7.8 20:33:25 64° N 20:33:25 64° N 20:37:52 10° NNW visible
16 Mar 10.1 22:14:04 15° WNW 22:14:04 15° WNW 22:16:00 10° NW visible
17 Mar 8.0 20:02:35 45° ENE 20:02:35 45° ENE 20:07:21 10° N visible
17 Mar 9.4 21:43:14 27° WNW 21:43:14 27° WNW 21:46:31 10° NW visible
18 Mar 8.7 19:31:45 27° ENE 19:32:18 27° ENE 19:36:37 10° N visible
18 Mar 8.5 21:12:24 46° WNW 21:12:24 46° WNW 21:16:32 10° NNW visible
19 Mar 9.3 19:00:55 15° ENE 19:02:19 17° NE 19:05:34 10° NNE visible
19 Mar 7.7 20:41:34 73° NNW 20:41:34 73° NNW 20:46:16 10° NNW visible
19 Mar 10.2 22:22:13 14° WNW 22:22:13 14° WNW 22:23:57 10° NW visible
20 Mar 9.7 18:31:39 10° ENE 18:32:28 10° NE 18:33:17 10° NE visible
20 Mar 7.8 20:10:44 52° ENE 20:10:45 52° ENE 20:15:48 10° N visible
20 Mar 9.5 21:51:23 24° WNW 21:51:23 24° WNW 21:54:44 10° NW visible
21 Mar 8.5 19:39:54 30° ENE 19:40:36 31° ENE 19:45:08 10° N visible
21 Mar 8.6 21:20:33 42° WNW 21:20:33 42° WNW 21:24:51 10° NNW visible
22 Mar 9.1 19:09:04 17° ENE 19:10:35 19° NE 19:14:11 10° NNE visible
22 Mar 7.7 20:49:43 75° WNW 20:49:43 75° WNW 20:54:38 10° NNW visible
22 Mar 10.3 22:30:22 12° WNW 22:30:22 12° WNW 22:31:42 10° WNW visible
23 Mar 9.6 18:38:49 10° ENE 18:40:42 12° NE 18:42:34 10° NNE visible
23 Mar 7.6 20:18:53 60° E 20:19:06 61° ENE 20:24:13 10° N visible
23 Mar 9.6 21:59:32 21° W 21:59:32 21° W 22:02:55 10° NW visible
